AirNav   ProFlight Series 2 Aviation Headset
 
 1019 users online  

PA93 Cherokee Heliport
Brick Church Village, Pennsylvania, USA

GOING TO BRICK CHURCH VILLAGE?


FAA INFORMATION EFFECTIVE 18 JUNE 2020

Location

FAA Identifier: PA93
Lat/Long: 40-41-06.0000N 079-27-24.0000W
40-41.100000N 079-27.400000W
40.6850000,-79.4566667
(estimated)
Elevation: 1175 ft. / 358 m (estimated)
Variation: 09W (1990)
From city: 7 miles SE of BRICK CHURCH VILLAGE, PA
Time zone: UTC -4 (UTC -5 during Standard Time)
Zip code: 16226

Heliport Operations

Heliport use: Private use. Permission required prior to landing
Activation date: 08/1992
Control tower: no
ARTCC: CLEVELAND CENTER
FSS: ALTOONA FLIGHT SERVICE STATION
Attendance: CONTINUOUS
Wind indicator: yes
Segmented circle: no
Lights: FOR FLOOD LGTS CALL 412-845-9132.

Heliport Communications

UNICOM: 123.05
WX AWOS-3 at IDI (16 nm E): 126.625 (724-388-0204)

Nearby radio navigation aids

VOR radial/distance  VOR name  Freq  Var
CIPr186/27.7CLARION VOR/DME112.9006W
RECr293/33.4REVLOC VOR/DME110.6009W
EWCr112/35.3ELLWOOD CITY VOR/DME115.8008W
JSTr314/36.0JOHNSTOWN VOR/DME113.0006W
AGCr057/36.1ALLEGHENY VOR/DME110.0009W

Heliport Services

Runway Information

Helipad H1

Dimensions: 60 x 60 ft. / 18 x 18 m
Surface: asphalt/concrete
Runway edge lights: FLD
Latitude: 40-41.100000N
Longitude: 079-27.400000W
Elevation: 1175.0 ft.
Traffic pattern: leftleft

Heliport Ownership and Management from official FAA records

Ownership: Privately-owned
Owner: KEN E. WALKER
R.D. 2 BRICK CHURCH ROAD
FORD CITY, PA 16226
Phone 412-845-9132
Manager: CHEROKEE WALKER
R.D. 2 BRICK CHURCH ROAD
FORD CITY, PA 16226
Phone 412-845-9132

Heliport Operational Statistics

Aircraft based on the field: 2
Helicopters: 2
    

Additional Remarks

A52-H1 10 FT MKD PLINE 200 FT FM PAD.
FOR CD CTC JOHNSTOWN APCH AT 814-532-5960, WHEN APCH CLSD CTC CLEVELAND ARTCC AT 440-774-0234.

Instrument Procedures

There are no published instrument procedures at PA93.

Some nearby airports with instrument procedures:

6P7 - McVille Airport (7 nm NW)
KIDI - Indiana County Airport (Jimmy Stewart Field) (16 nm E)
KBTP - Pittsburgh/Butler Regional Airport (23 nm W)
KLBE - Arnold Palmer Regional Airport (25 nm S)
N35 - Punxsutawney Municipal Airport (29 nm NE)
 
Loc | Ops | Rwys | IFR | FBO | Links
Com | Nav | Svcs | Stats | Notes
Area around PA93 (Cherokee Heliport)
 
Road maps at: MapQuest Bing Google
 
Aerial photo
No photo
 
Sectional chart

 
Airport distance calculator
Flying to Cherokee Heliport? Find the distance to fly.

From to PA93

Sunrise and sunset
Times for 07-Jul-2020
 Local
(UTC-4)
 Zulu
(UTC)
Morning civil twilight05:2309:23
Sunrise05:5509:55
Sunset20:5000:50
Evening civil twilight21:2301:23

Current date and time
Zulu (UTC)  08-Jul-2020 02:40:59
Local (UTC-4)  07-Jul-2020 22:40:59
 
METAR
KIDI 
17nm E 
080215Z AUTO 00000KT 7SM FEW041 BKN075 OVC110 21/21 A3009 RMK A01
KBTP 
23nm W 
080156Z AUTO 15004KT 10SM BKN100 22/20 A3002 RMK AO2 RAE40 SLP162 P0004 T02170200
KLBE 
25nm S 
080215Z AUTO 14005KT 10SM CLR 21/21 A3004 RMK AO2
KAGC 
29nm SW 
080153Z 14005KT 8SM CLR 22/20 A3002 RMK AO2 SLP160 T02170200
KP53 
33nm SW 
080156Z AUTO 00000KT 19/18 A2993 RMK AO1 SLP133 T01940178 $
TAF
KLBE 
25nm S 
080136Z 0802/0824 VRB03KT 3SM -SHRA OVC035 FM080300 19003KT P6SM VCSH BKN050 FM080700 00000KT 3SM BR BKN007 FM081300 29003KT P6SM SCT035 FM082000 24003KT P6SM VCTS BKN050CB
KAGC 
29nm SW 
071954Z 0720/0818 23005KT P6SM VCTS BKN050CB TEMPO 0721/0724 5SM TSRA FM080000 17004KT P6SM BKN100 FM080600 00000KT P6SM SCT200
NOTAMs
Click for the latest NOTAMs
NOTAMs are issued by the DoD/FAA and will open in a separate window not controlled by AirNav.

 

 
 

Would you like to see your business listed on this page?

 If your business provides an interesting product or service to pilots, flight crews, aircraft, or users of the Cherokee Heliport, you should consider listing it here.  To start the listing process, click on the button below
 
Add a business
 

Other Pages about Cherokee Heliport

Update a link
 
Copyright © AirNav, LLC. All rights reserved. Privacy Policy  Contact